Location: Lady Lake Astronomical Observatory
(47.6963°N, 53.2446°W)
Time: 21:52:57
(UTC-02:-30)

N. Korean satellite - Visible Passes

Search period start: 19 October 2019 00:00
Search period end: 29 October 2019 00:00
Orbit: 455 x 508 km, 97.2° (Epoch: 19 October)

Date Brightness Start Highest point End Pass type
(mag) Time Alt. Az. Time Alt. Az. Time Alt. Az.
19 Oct 10.3 05:54:22 10° ENE 05:55:58 12° E 05:57:34 10° ESE visible
20 Oct 10.1 19:14:45 10° WSW 19:16:28 13° W 19:18:13 10° WNW visible
21 Oct 8.4 06:35:40 10° NNE 06:39:03 36° E 06:42:27 10° SSE visible
21 Oct 9.2 18:48:04 10° SSW 18:50:57 25° W 18:53:54 10° NW visible
22 Oct 9.7 06:10:53 10° NE 06:13:36 19° E 06:16:19 10° SE visible
23 Oct 10.5 05:47:25 10° ENE 05:48:04 10° E 05:48:42 10° E visible
24 Oct 7.3 06:52:56 10° NNE 06:56:34 61° E 07:00:12 10° S visible
24 Oct 9.9 19:06:18 10° SW 19:08:32 16° W 19:10:48 10° NW visible
25 Oct 8.8 06:27:54 10° NNE 06:31:10 30° E 06:34:28 10° SSE visible
25 Oct 8.7 18:39:57 10° SSW 18:43:03 31° W 18:46:12 10° NNW visible
26 Oct 10.0 06:03:18 10° NE 06:05:41 16° E 06:08:06 10° SE visible
27 Oct 10.5 19:25:33 10° W 19:26:08 10° W 19:26:43 10° WNW visible
28 Oct 7.8 06:45:05 10° NNE 06:48:41 49° E 06:52:17 10° S visible
28 Oct 9.6 18:57:58 10° SW 19:00:34 20° W 19:03:14 10° NW visible
